This is the latest recevied weather packets stored in our database for station/object WX7FGZ-3. If no packets are shown the sender has not sent any weather packets the latest 10 day(s).
| Time | Temp. | Humidity | Pressure | Rain* | Wind** | Luminosity | Snow |
|---|---|---|---|---|---|---|---|
| 1777663525 | 15.56° C | 24% | 1013.5 hPa | 0 mm | - | - | - |
| 1777663224 | 15.56° C | 25% | 1013.5 hPa | 0 mm | - | - | - |
| 1777661122 | 15° C | 27% | 1013.7 hPa | 0 mm | - | - | - |
| 1777660822 | 15° C | 26% | 1013.8 hPa | 0 mm | - | - | - |
| 1777660222 | 14.44° C | 28% | 1014 hPa | 0 mm | - | - | - |
| 1777659921 | 14.44° C | 26% | 1014 hPa | 0 mm | - | - | - |
| 1777659321 | 15° C | 28% | 1014 hPa | 0 mm | - | - | - |
| 1777657820 | 13.89° C | 30% | 1014 hPa | 0 mm | - | - | - |
| 1777657219 | 13.89° C | 29% | 1014.1 hPa | 0 mm | - | - | - |
| 1777656919 | 13.89° C | 28% | 1014 hPa | 0 mm | - | - | - |
| 1777656618 | 13.89° C | 31% | 1014.1 hPa | 0 mm | - | - | - |
| 1777656318 | 13.89° C | 29% | 1014 hPa | 0 mm | - | - | - |
| 1777655718 | 13.33° C | 31% | 1014 hPa | 0 mm | - | - | - |
| 1777655417 | 13.33° C | 32% | 1014 hPa | 0 mm | - | - | - |
| 1777655117 | 13.33° C | 31% | 1014 hPa | 0 mm | - | - | - |
| 1777654816 | 13.33° C | 31% | 1014 hPa | 0 mm | - | - | - |
| 1777654517 | 12.78° C | 31% | 1014.1 hPa | 0 mm | - | - | - |
| 1777654216 | 12.78° C | 31% | 1014 hPa | 0 mm | - | - | - |
| 1777653916 | 13.33° C | 31% | 1013.8 hPa | 0 mm | - | - | - |
| 1777653615 | 12.78° C | 31% | 1013.8 hPa | 0 mm | - | - | - |
| 1777653316 | 12.78° C | 32% | 1013.8 hPa | 0 mm | - | - | - |
| 1777653015 | 12.22° C | 32% | 1013.7 hPa | 0 mm | - | - | - |
| 1777652714 | 11.67° C | 33% | 1013.7 hPa | 0 mm | - | - | - |
| 1777652414 | 11.67° C | 34% | 1013.7 hPa | 0 mm | - | - | - |
| 1777652114 | 12.22° C | 32% | 1013.8 hPa | 0 mm | - | - | - |
* Rain latest hour (hover to see other rain measurements)
** Current wind speed in m/s (hover to see current wind gust speed)